If you wish to contribute or participate in the discussions about articles you are invited to join SKYbrary as a registered user

 Actions

Southampton Airport

From SKYbrary Wiki

EGHI
Airport
ICAO: EGHI – IATA: SOU
Summary
Name Southampton Airport
Region Europe
Territory United Kingdom GB.gif
Location Eastleigh,Southampton, England.
Serving Southampton
Elevation 13.411 m <br />44 ft <br />44 ft13.411 m <br />
Coordinates 50° 56' 59.32" N, 1° 21' 23.39" W
Runways
Designator Length Width Surface ROPS
2/20 1723 m5,652.887 ft <br /> 37 m121.391 ft <br /> ASP yes/yes


METAR
Observation EGHI 150820Z 10004KT 070V140 4000 -DZ FEW004 BKN005 10/09 Q1000
Station Southampton / Weather Centre
Date/Time 15 May 2021 08:20:00
Wind direction 100°
Wind speed 04 kts
Lowest cloud amount few clouds
Temperature 10°C
Dew point 9°C
Humidity 93%
QNH 1000 hPa
Weather condition n/a

Southampton Airport

ICAO: EGHI IATA: SOU

Description

Small domestic and international airport serving the city of Southampton and environs; has co-located railway station.

Climatology

Temperate Marine climate/Oceanic climate (Köppen climate classification Cfb). Moderately cool summer and comparatively warm winter with a temperature range of only 14°C57.2 °F <br />287.15 K <br />516.87 °R <br />. Prevailing south-westerly winds from the Atlantic Ocean.

Maps

Terrain

Loading map...

Airport Layout

Loading map...